Location: Luxembourg
(49.6117°N, 6.1300°E)
Time: 05:02:14
(UTC+01:00)

ISS - Pass Details

Date: 05 December 2021
Orbit: 413 x 422 km, 51.6° (Epoch: 22 January)

Event Time Altitude Azimuth Distance (km) Brightness Sun altitude
Rises 18:38:59 0° 288° (WNW) 2,384 1.1 -18.9°
Reaches altitude 10° 18:41:13 10° 278° (W) 1,514 0.1 -19.3°
Maximum altitude 18:44:17 31° 214° (SSW) 760 -2.1 -19.7°
Enters shadow 18:45:55 20° 166° (SSE) 1,031 -1.8 -20.0°
